Tracking 30692 objects as of 16-Jun-2025
HD Live streaming from Space Station
objects crossing your sky now

THOR ABLESTAR DEB

Track THOR ABLESTAR DEB now!
10-day predictions


NORAD ID: 5876
Int'l Code: 1961-015KF
Perigee: 915.1 km
Apogee: 2,037.3 km
Inclination: 65.7 °
Period: 115.3 minutes
Semi major axis: 7847 km
RCS: 0.0752 m2 (small)
Launch date: June 29, 1961
Source: United States (US)
Launch site: AIR FORCE EASTERN TEST RANGE (AFETR)

Note: This is SATELLITE DEBRIS
Your satellite tracking list
Your tracking list is empty




NASA's NSSDC Master Catalog

Two Line Element Set (TLE):
1 05876U 61015KF  25166.81891349 -.00000307  00000-0 -65443-3 0  9999
2 05876  65.6742 319.0678 0715025  45.3551 320.3511 12.48906574119355
Source of the keplerian elements: AFSPC